Weather History for Poplar Bluff, MO

Change the Weather History Date:

Tuesday, October 7, 2014

  Actual Average Record
Temperature  
Mean Temperature 71 °F -  
Max Temperature 84 °F 73 °F 91 °F (1939)
Min Temperature 60 °F 49 °F 30 °F (1952)
Cooling Degree Days 6    
Growing Degree Days 21 (Base 50)    
Moisture  
Dew Point 60 °F    
Average Humidity 76    
Maximum Humidity 90    
Minimum Humidity 46    
Precipitation  
Precipitation 0.34 in - - ()
Sea Level Pressure  
Sea Level Pressure 29.84 in    
Wind  
Wind Speed 7 mph (SW)    
Max Wind Speed 15 mph    
Max Gust Speed 23 mph    
Visibility 9 miles    
Events Rain , Thunderstorm    
Averages and records for this station are not official NWS values.
T = Trace of Precipitation, MM = Missing Value Source: NWS Daily Summary

Daily Weather History Graph

Daily Weather History Graph

Search for Another Location

Airport:

Trip Planner

Search our weather history database for the weather conditions in past years. The results will help you decide how hot, cold, wet, or windy it might be!

Date:

Astronomy

Oct. 07, 2014 Rise Set
Actual Time 7:01 AM CDT 6:35 PM CDT
Civil Twilight 6:35 AM CDT 7:01 PM CDT
Nautical Twilight 6:05 AM CDT 7:31 PM CDT
Astronomical Twilight 5:35 AM CDT 8:01 PM CDT
Moon 6:11 PM CDT (10/7) 5:59 AM CDT (10/7)
Length of Visible Light 12h 25m
Length of Day
11h 34m
Waxing Gibbous, 99% of the Moon is Illuminated
Oct 7
Waxing Gibbous
Oct 8
Full
Oct 15
Last Quarter
Oct 23
New
Oct 30
First Quarter

Hourly Weather History & Observations

Time (CDT) Temp. Heat Index Dew Point Humidity Pressure Visibility Wind Dir Wind Speed Gust Speed Precip Events Conditions
12:53 AM 64.9 °F - 57.0 °F 75% 29.85 in 10.0 mi SSW 6.9 mph - 0.01 in Rain Light Rain
1:53 AM 62.1 °F - 57.9 °F 86% 29.85 in 10.0 mi SSW 11.5 mph - 0.03 in Rain Light Rain
2:25 AM 62.1 °F - 57.0 °F 84% 29.84 in 2.5 mi SSW 4.6 mph - 0.06 in Rain , Thunderstorm Rain
2:32 AM 62.1 °F - 57.0 °F 84% 29.84 in 6.0 mi Calm Calm - 0.07 in Rain , Thunderstorm Light Rain
2:53 AM 62.1 °F - 55.9 °F 80% 29.82 in 10.0 mi NE 6.9 mph - 0.07 in Thunderstorm Overcast
3:12 AM 62.1 °F - 55.9 °F 80% 29.80 in 10.0 mi Variable 3.5 mph - N/A   Mostly Cloudy
3:53 AM 60.1 °F - 55.9 °F 86% 29.80 in 10.0 mi ESE 10.4 mph - N/A   Mostly Cloudy
4:53 AM 62.1 °F - 57.9 °F 86% 29.82 in 4.0 mi NNE 4.6 mph - 0.10 in Rain Rain
5:00 AM 61.0 °F - 57.0 °F 87% 29.83 in 5.0 mi North 6.9 mph - 0.02 in Rain , Thunderstorm Rain
5:13 AM 61.0 °F - 57.0 °F 87% 29.84 in 3.0 mi North 4.6 mph - 0.06 in Rain Rain
5:53 AM 61.0 °F - 57.9 °F 90% 29.81 in 7.0 mi ESE 8.1 mph - 0.13 in Rain Light Rain
6:53 AM 60.1 °F - 57.0 °F 90% 29.82 in 10.0 mi SE 6.9 mph - 0.00 in   Overcast
7:34 AM 62.1 °F - 59.0 °F 90% 29.82 in 7.0 mi South 5.8 mph - 0.00 in   Overcast
7:53 AM 63.0 °F - 59.0 °F 87% 29.82 in 10.0 mi South 6.9 mph - 0.00 in   Mostly Cloudy
8:53 AM 64.9 °F - 59.0 °F 81% 29.83 in 10.0 mi South 10.4 mph - N/A   Mostly Cloudy
9:53 AM 68.0 °F - 61.0 °F 78% 29.84 in 10.0 mi SSW 15.0 mph - N/A   Partly Cloudy
10:53 AM 70.0 °F - 62.1 °F 76% 29.84 in 10.0 mi SW 11.5 mph 23.0 mph N/A   Mostly Cloudy
11:00 AM 71.1 °F - 62.1 °F 73% 29.85 in 10.0 mi SW 15.0 mph 20.7 mph N/A   Scattered Clouds
11:10 AM 72.0 °F - 62.1 °F 71% 29.84 in 10.0 mi SW 15.0 mph 23.0 mph N/A   Mostly Cloudy
11:53 AM 73.0 °F - 63.0 °F 71% 29.84 in 10.0 mi SW 9.2 mph - N/A   Mostly Cloudy
12:27 PM 75.9 °F - 64.9 °F 69% 29.84 in 10.0 mi SW 10.4 mph - N/A   Scattered Clouds
12:53 PM 77.0 °F - 64.0 °F 64% 29.83 in 10.0 mi WSW 9.2 mph - N/A   Partly Cloudy
1:53 PM 80.1 °F 81.7 °F 64.0 °F 58% 29.81 in 10.0 mi SW 10.4 mph - N/A   Clear
2:53 PM 82.0 °F 83.1 °F 63.0 °F 52% 29.81 in 10.0 mi SW 9.2 mph - N/A   Clear
3:53 PM 82.9 °F 83.3 °F 61.0 °F 47% 29.82 in 10.0 mi WSW 8.1 mph - N/A   Clear
4:53 PM 82.9 °F 83.2 °F 60.1 °F 46% 29.82 in 10.0 mi WSW 8.1 mph - N/A   Clear
5:53 PM 81.0 °F 81.7 °F 61.0 °F 50% 29.83 in 10.0 mi WSW 8.1 mph - N/A   Clear
6:53 PM 75.0 °F - 63.0 °F 66% 29.85 in 10.0 mi Calm Calm - N/A   Clear
7:53 PM 69.1 °F - 62.1 °F 78% 29.87 in 10.0 mi Calm Calm - N/A   Clear
8:53 PM 64.9 °F - 61.0 °F 87% 29.90 in 10.0 mi NNW 5.8 mph - N/A   Clear
9:53 PM 64.9 °F - 60.1 °F 84% 29.92 in 10.0 mi Calm Calm - N/A   Clear
10:53 PM 61.0 °F - 57.9 °F 90% 29.94 in 9.0 mi North 5.8 mph - N/A   Clear
11:53 PM 63.0 °F - 57.9 °F 84% 29.96 in 10.0 mi North 4.6 mph - N/A   Clear